TimeCST,TemperatureF,Dew PointF,Humidity,Sea Level PressureIn,VisibilityMPH,Wind Direction,Wind SpeedMPH,Gust SpeedMPH,PrecipitationIn,Events,Conditions,WindDirDegrees,DateUTC
12:53 AM,48.9,46.9,93,29.67,10.0,SW,9.2,-,0.01,,Mostly Cloudy,230,2014-01-11 06:53:00
1:53 AM,50.0,46.0,86,29.69,10.0,West,8.1,-,N/A,,Scattered Clouds,270,2014-01-11 07:53:00
2:53 AM,46.9,41.0,80,29.70,10.0,West,8.1,-,N/A,,Clear,270,2014-01-11 08:53:00
3:53 AM,44.1,37.9,79,29.71,10.0,Calm,Calm,-,N/A,,Clear,0,2014-01-11 09:53:00
4:53 AM,41.0,36.0,82,29.72,10.0,West,3.5,-,N/A,,Clear,280,2014-01-11 10:53:00
5:53 AM,44.1,35.1,71,29.74,10.0,West,9.2,-,N/A,,Clear,270,2014-01-11 11:53:00
6:53 AM,43.0,33.1,68,29.77,10.0,West,8.1,-,N/A,,Clear,280,2014-01-11 12:53:00
7:53 AM,41.0,33.1,73,29.80,10.0,WNW,10.4,-,N/A,,Clear,290,2014-01-11 13:53:00
8:53 AM,43.0,34.0,71,29.82,10.0,West,11.5,-,N/A,,Clear,280,2014-01-11 14:53:00
9:53 AM,44.1,35.1,71,29.85,10.0,West,17.3,25.3,N/A,,Clear,280,2014-01-11 15:53:00
10:53 AM,45.0,36.0,71,29.86,10.0,WNW,12.7,21.9,N/A,,Clear,290,2014-01-11 16:53:00
11:41 AM,44.6,35.6,71,29.86,10.0,West,13.8,21.9,N/A,,Mostly Cloudy,280,2014-01-11 17:41:00
11:53 AM,46.0,37.9,73,29.86,10.0,West,15.0,-,N/A,,Mostly Cloudy,270,2014-01-11 17:53:00
12:14 PM,46.4,37.4,71,29.85,10.0,WNW,15.0,-,N/A,,Scattered Clouds,290,2014-01-11 18:14:00
12:53 PM,46.9,37.9,71,29.85,10.0,WNW,11.5,-,N/A,,Mostly Cloudy,290,2014-01-11 18:53:00
1:53 PM,48.9,37.9,66,29.86,10.0,West,11.5,-,N/A,,Clear,280,2014-01-11 19:53:00
2:53 PM,51.1,37.0,59,29.87,10.0,West,16.1,-,N/A,,Clear,270,2014-01-11 20:53:00
3:53 PM,52.0,35.1,53,29.87,10.0,West,9.2,-,N/A,,Clear,260,2014-01-11 21:53:00
4:53 PM,48.0,37.0,66,29.88,10.0,SW,6.9,-,N/A,,Clear,230,2014-01-11 22:53:00
5:53 PM,44.1,35.1,71,29.91,10.0,SSW,5.8,-,N/A,,Clear,210,2014-01-11 23:53:00
6:53 PM,41.0,36.0,82,29.93,10.0,SW,3.5,-,N/A,,Clear,220,2014-01-12 00:53:00
7:53 PM,45.0,37.0,74,29.96,10.0,West,4.6,-,N/A,,Clear,260,2014-01-12 01:53:00
8:53 PM,44.1,35.1,71,29.99,10.0,West,6.9,-,N/A,,Clear,280,2014-01-12 02:53:00
9:53 PM,42.1,32.0,67,30.01,10.0,West,3.5,-,N/A,,Clear,280,2014-01-12 03:53:00
10:53 PM,39.0,30.9,73,30.01,10.0,West,3.5,-,N/A,,Clear,270,2014-01-12 04:53:00
11:53 PM,41.0,30.0,65,30.02,10.0,West,5.8,-,N/A,,Clear,280,2014-01-12 05:53:00